Seldovia, AK

5:48 PM AKST on January 18, 2017 (GMT -0900)
Seldovia

Weather History for PASO - March, 2013

Change the Weather History Date:

Saturday, March 9, 2013

  Actual Average (PAHO) Record (PAHO)
Temperature  
Mean Temperature 36 °F -  
Max Temperature 39 °F 34 °F 48 °F (1984)
Min Temperature 32 °F 21 °F -10 °F (1971)
Degree Days  
Heating Degree Days 30    
Moisture  
Dew Point 32 °F    
Average Humidity 90    
Maximum Humidity 96    
Minimum Humidity 79    
Precipitation  
Precipitation 0.20 in - - ()
Sea Level Pressure  
Sea Level Pressure 29.92 in    
Wind  
Wind Speed 1 mph (South)    
Max Wind Speed 8 mph    
Max Gust Speed -    
Visibility 7 miles    
Events Rain , Snow    
Averages and records for this station are not official NWS values.
T = Trace of Precipitation, MM = Missing Value Source: NWS Daily Summary

Daily Weather History Graph

Daily Weather History Graph

Search for Another Location

Airport or City:

Trip Planner

Search our weather history database for the weather conditions in past years. The results will help you decide how hot, cold, wet, or windy it might be!

Date:

Astronomy

Mar. 09, 2013 Rise Set
Actual Time 7:39 AM AKST 6:56 PM AKST
Civil Twilight 6:58 AM AKST 7:36 PM AKST
Nautical Twilight 6:11 AM AKST 8:24 PM AKST
Astronomical Twilight 5:21 AM AKST 9:14 PM AKST
Moon 6:32 AM AKST (3/9) 4:53 PM AKST (3/9)
Length of Visible Light 12h 38m
Length of Day
11h 16m
Waning Crescent, 5% of the Moon is Illuminated
Mar 9
Waning Crescent
Mar 11
New
Mar 19
First Quarter
Mar 27
Full
Apr 2
Last Quarter

Hourly Weather History & Observations

Time (AKST) Temp. Windchill Dew Point Humidity Pressure Visibility Wind Dir Wind Speed Gust Speed Precip Events Conditions
12:53 AM 35.1 °F - 32.0 °F 89% 29.72 in 8.0 mi Calm Calm - 0.02 in Snow Light Snow
1:15 AM 33.8 °F 30.8 °F 32.0 °F 93% 29.73 in 1.8 mi Variable 3.5 mph - 0.02 in Snow Light Snow
1:23 AM 33.8 °F - 32.0 °F 93% 29.73 in 3.0 mi Calm Calm - 0.03 in Snow Light Snow
1:32 AM 35.6 °F 31.7 °F 32.0 °F 87% 29.73 in 9.0 mi SW 4.6 mph - 0.03 in   Mostly Cloudy
1:53 AM 34.0 °F - 32.0 °F 92% 29.74 in 5.0 mi Calm Calm - 0.04 in Rain Light Rain
2:20 AM 35.6 °F 30.7 °F 32.0 °F 87% 29.74 in 10.0 mi Variable 5.8 mph - 0.00 in   Overcast
3:06 AM 35.6 °F 31.7 °F 33.8 °F 93% 29.76 in 10.0 mi Variable 4.6 mph - 0.00 in Rain Light Rain
3:18 AM 33.8 °F - 32.0 °F 93% 29.76 in 1.8 mi Calm Calm - 0.02 in Snow Light Snow
3:27 AM 33.8 °F 28.6 °F 32.0 °F 93% 29.76 in 2.0 mi NNE 5.8 mph - 0.03 in Snow Light Snow
3:38 AM 33.8 °F 30.8 °F 32.0 °F 93% 29.76 in 4.0 mi Variable 3.5 mph - 0.03 in Snow Light Snow
3:53 AM 34.0 °F - 32.0 °F 92% 29.77 in 9.0 mi Calm Calm - 0.04 in   Overcast
4:53 AM 33.1 °F - 32.0 °F 96% 29.78 in 10.0 mi Calm Calm - 0.01 in   Mostly Cloudy
5:51 AM 33.8 °F - 32.0 °F 93% 29.80 in 7.0 mi Calm Calm - 0.01 in Snow Light Snow
6:34 AM 33.8 °F - 32.0 °F 93% 29.81 in 10.0 mi Calm Calm - 0.01 in   Overcast
6:53 AM 33.1 °F - 32.0 °F 96% 29.83 in 4.0 mi Calm Calm - 0.02 in Snow Light Snow
7:53 AM 33.1 °F - 32.0 °F 96% 29.85 in 2.5 mi Calm Calm - 0.02 in Snow Light Snow
8:01 AM 33.8 °F - 32.0 °F 93% 29.85 in 5.0 mi Calm Calm - 0.00 in Snow Light Snow
8:23 AM 33.8 °F - 32.0 °F 93% 29.85 in 7.0 mi Calm Calm - 0.00 in   Overcast
8:31 AM 33.8 °F - 32.0 °F 93% 29.86 in 4.0 mi Calm Calm - 0.00 in   Overcast
8:53 AM 33.1 °F - 32.0 °F 96% 29.87 in 6.0 mi Calm Calm - 0.01 in Snow Light Snow
9:00 AM 33.8 °F - 32.0 °F 93% 29.87 in 9.0 mi Calm Calm - 0.00 in   Mostly Cloudy
9:09 AM 33.8 °F - 32.0 °F 93% 29.87 in 10.0 mi Calm Calm - 0.00 in   Overcast
9:53 AM 34.0 °F - 33.1 °F 96% 29.88 in 9.0 mi Calm Calm - 0.00 in Rain Light Rain
10:43 AM 35.6 °F - 33.8 °F 93% 29.90 in 2.5 mi Calm Calm - 0.01 in Snow Light Snow
10:53 AM 35.1 °F - 34.0 °F 96% 29.91 in 5.0 mi Calm Calm - 0.01 in Rain Light Rain
11:09 AM 35.6 °F - 33.8 °F 93% 29.91 in 9.0 mi Calm Calm - 0.00 in Rain Light Rain
11:19 AM 35.6 °F - 33.8 °F 93% 29.91 in 10.0 mi Calm Calm - 0.00 in   Mostly Cloudy
11:53 AM 39.0 °F 36.8 °F 36.0 °F 89% 29.92 in 10.0 mi SSW 3.5 mph - 0.00 in   Overcast
12:53 PM 37.9 °F - 33.1 °F 83% 29.94 in 10.0 mi Calm Calm - 0.00 in   Overcast
1:53 PM 39.0 °F 36.8 °F 33.1 °F 79% 29.96 in 10.0 mi Variable 3.5 mph - 0.00 in   Overcast
2:50 PM 39.2 °F - 33.8 °F 81% 29.96 in 10.0 mi Calm Calm - N/A   Mostly Cloudy
2:53 PM 37.9 °F - 34.0 °F 86% 29.97 in 10.0 mi Calm Calm - N/A   Overcast
3:34 PM 37.4 °F - 33.8 °F 87% 29.98 in 10.0 mi Calm Calm - N/A   Overcast
3:53 PM 37.0 °F - 34.0 °F 89% 29.99 in 10.0 mi Calm Calm - 0.00 in Rain Light Rain
4:02 PM 37.4 °F 34.9 °F 33.8 °F 87% 29.99 in 10.0 mi Variable 3.5 mph - 0.00 in Rain Light Rain
4:53 PM 35.1 °F - 33.1 °F 92% 30.01 in 8.0 mi Calm Calm - 0.00 in Rain Light Rain
5:34 PM 35.6 °F - 33.8 °F 93% 30.03 in 10.0 mi Calm Calm - 0.01 in Rain Light Rain
5:48 PM 35.6 °F - 33.8 °F 93% 30.03 in 10.0 mi Calm Calm - 0.01 in Rain Light Rain
5:53 PM 35.1 °F - 33.1 °F 92% 30.04 in 10.0 mi Calm Calm - 0.01 in Rain Light Rain
6:16 PM 35.6 °F - 33.8 °F 93% 30.05 in 4.0 mi Calm Calm - 0.01 in Snow Light Snow
6:24 PM 33.8 °F - 32.0 °F 93% 30.05 in 1.8 mi Calm Calm - 0.02 in Snow Light Snow
6:31 PM 33.8 °F - 32.0 °F 93% 30.05 in 2.5 mi Calm Calm - 0.02 in Snow Light Snow
6:34 PM 33.8 °F 30.8 °F 32.0 °F 93% 30.05 in 3.0 mi SE 3.5 mph - 0.02 in Snow Light Snow
6:53 PM 34.0 °F 31.0 °F 30.9 °F 89% 30.07 in 9.0 mi Variable 3.5 mph - 0.02 in   Overcast
7:16 PM 33.8 °F - 32.0 °F 93% 30.08 in 6.0 mi Calm Calm - 0.00 in Snow Light Snow
7:53 PM 34.0 °F - 30.0 °F 85% 30.10 in 3.0 mi Calm Calm - 0.00 in Snow Light Snow
7:55 PM 33.8 °F - 30.2 °F 87% 30.10 in 2.5 mi Calm Calm - 0.00 in Snow Light Snow
8:53 PM 34.0 °F 28.0 °F 28.9 °F 82% 30.12 in 10.0 mi Variable 6.9 mph - 0.00 in   Overcast
9:53 PM 33.1 °F 27.7 °F 28.0 °F 82% 30.14 in 10.0 mi Variable 5.8 mph - N/A   Overcast
10:53 PM 33.1 °F 27.7 °F 28.0 °F 82% 30.15 in 10.0 mi South 5.8 mph - N/A   Overcast
11:27 PM 32.0 °F 24.8 °F 26.6 °F 80% 30.15 in 10.0 mi South 8.1 mph - N/A   Scattered Clouds
11:53 PM 32.0 °F 26.4 °F 26.1 °F 79% 30.16 in 10.0 mi South 5.8 mph - N/A   Partly Cloudy